TJSJTNCM

Guest
Details From TJSJ - San Juan - Luis Munoz Marin Intl
To TNCM - St Maarten - Princess Juliana Intl
Flight Number -
Tags generated
Created
Modified
Stats Distance 171 nm / 317 km
Max Altitude 21,400 ft / 6,523 m
Waypoints 3
Social Downloads 3
Likes 0
Share VATSIM

Download

Looking for another format? Having issues loading an existing format? Contact us
Advertisement - Login to hide

Notes

Basic altitude profile: - Ascent Rate: 2500ft/min - Ascent Speed: 250kts - Cruise Altitude: 35000ft - Cruise Speed: 420kts - Descent Rate: 1500ft/min - Descent Speed: 250kts Options: - Use NATs: no - Use PACOTS: no - Use low airways: no - Use high airways: no

Route

TJSJ 1800N06500W TNCM

ID Type Via Altitude Latitude Longitude Leg Dist Tot Dist Heading (true) Name
O TJSJ APT - 0 ft / 0 m 18.43878˚ -66.00202˚ - 0 nm - San Juan - Luis Munoz Marin Intl
1800N06500W LATLON - 21,400 ft / 6,523 m 18.00000˚ -65.00000˚ 62 nm 62 nm 115° / 115° -
O TNCM APT - 0 ft / 0 m 18.04089˚ -63.10897˚ 108 nm 170 nm 88° / 89° St Maarten - Princess Juliana Intl

Altitude Profile

Advertisement - Login to hide

Weather


0- 5 10 15 20 25 30 35+ Temperature / ° C

Clouds and Precipitation
Forecast for 2017-12-17 06:00 UTC. Updated an hour ago

Ground ~20,000 ft ~40,000 ft Winds

TJSJ

Details ICAO TJSJ (SJU)
Name San Juan - Luis Munoz Marin Intl
Region USA (Puerto Rico)
Timezone America/Puerto_Rico (UTC-4.0)
Stats Elevation 9 ft / 3 m (AMSL)
Location 18.438777° -66.002018°
Runways 2
Magnetic Variation 13.222° W

METAR

TJSJ 170356Z 08012G19KT 10SM FEW018 SCT030 27/24 A3007

Decode

TAF

TAF AMD TJSJ 170141Z 1702/1724 08008KT P6SM VCSH SCT025 SCT050 TEMPO 1702/1703 -SHRA FEW018 SCT025 FM170300 09011KT P6SM VCSH SCT022 SCT040 FM171450 06016G26KT P6SM SCT030 SCT060 FM172300 07014KT P6SM FEW030 SCT070

Decode

Departure Runways

ID Width Length Bearing (true) Bearing (mag) Surface Threshold Offset Overrun Length
08 200 ft / 61 m 9,781 ft / 2,981 m 66.87° 80.09° Asphalt 0 ft / 0 m 200 ft / 61 m
10 151 ft / 46 m 8,007 ft / 2,440 m 90.14° 103.36° Concrete 0 ft / 0 m 200 ft / 61 m
26 200 ft / 61 m 9,781 ft / 2,981 m 246.88° 260.10° Asphalt 0 ft / 0 m 230 ft / 70 m
28 151 ft / 46 m 8,007 ft / 2,440 m 270.15° 283.37° Concrete 0 ft / 0 m 200 ft / 61 m

TNCM

Details ICAO TNCM (SXM)
Name St Maarten - Princess Juliana Intl
Region Caribbean Netherlands, Aruba, Curaçao, Sint Maarten
Timezone Unknown (UTC+0.0)
Stats Elevation 12 ft / 4 m (AMSL)
Location 18.040889° -63.108974°
Runways 1
Magnetic Variation 14.325° W

METAR

Not found

TAF

TAF AMD TNCM 170148Z 1702/1724 05013KT P6SM VCSH SCT018 FM171450 08016KT P6SM SCT022 SCT050 FM172300 07012KT P6SM SCT020 SCT050

Decode

Destination Runways

ID Width Length Bearing (true) Bearing (mag) Surface Threshold Offset Overrun Length
10 148 ft / 45 m 7,464 ft / 2,275 m 81.43° 95.76° Asphalt 0 ft / 0 m 151 ft / 46 m
28 148 ft / 45 m 7,464 ft / 2,275 m 261.44° 275.77° Asphalt 397 ft / 121 m 0 ft / 0 m

Popular Alternatives